Black River Falls, WI

10:38 AM CST on February 19, 2018 (GMT -0600)
Black River Falls Area

Weather History for KBCK - July, 2013

Change the Weather History Date:

Saturday, July 13, 2013

  Actual Average (KCMY) Record (KCMY)
Temperature  
Mean Temperature 70 °F -  
Max Temperature 84 °F 83 °F 100 °F (1974)
Min Temperature 55 °F 61 °F 42 °F (2001)
Cooling Degree Days 4    
Growing Degree Days 20 (Base 50)    
Moisture  
Dew Point 57 °F    
Average Humidity 68    
Maximum Humidity 100    
Minimum Humidity 35    
Precipitation  
Precipitation 0.00 in - - ()
Sea Level Pressure  
Sea Level Pressure 30.09 in    
Wind  
Wind Speed 3 mph (SSE)    
Max Wind Speed 13 mph    
Max Gust Speed 17 mph    
Visibility 10 miles    
Events      
Averages and records for this station are not official NWS values.
T = Trace of Precipitation, MM = Missing Value Source: NWS Daily Summary

Daily Weather History Graph

Daily Weather History Graph

Search for Another Location

Airport or City:

Trip Planner

Search our weather history database for the weather conditions in past years. The results will help you decide how hot, cold, wet, or windy it might be!

Date:

Astronomy

Jul. 13, 2013 Rise Set
Actual Time 5:32 AM CDT 8:45 PM CDT
Civil Twilight 4:56 AM CDT 9:21 PM CDT
Nautical Twilight 4:10 AM CDT 10:06 PM CDT
Astronomical Twilight 3:14 AM CDT 11:02 PM CDT
Moon 11:02 AM CDT (7/13) 11:11 PM CDT (7/13)
Length of Visible Light 16h 24m
Length of Day
15h 13m
Waxing Crescent, 26% of the Moon is Illuminated
Jul 13
Waxing Crescent
Jul 15
First Quarter
Jul 22
Full
Jul 29
Last Quarter
Aug 6
New

Hourly Weather History & Observations

Time (CDT) Temp. Heat Index Dew Point Humidity Pressure Visibility Wind Dir Wind Speed Gust Speed Precip Events Conditions
12:15 AM 59.9 °F - 58.8 °F 96% 30.05 in 10.0 mi Calm Calm - N/A   Clear
12:35 AM 59.7 °F - 58.1 °F 94% 30.06 in 10.0 mi Calm Calm - N/A   Clear
12:55 AM 59.2 °F - 57.4 °F 94% 30.07 in 10.0 mi Calm Calm - N/A   Clear
1:15 AM 57.9 °F - 57.7 °F 99% 30.07 in 10.0 mi Calm Calm - N/A   Clear
1:35 AM 55.9 °F - 55.8 °F 99% 30.06 in 10.0 mi Calm Calm - N/A   Clear
1:55 AM 55.9 °F - 55.9 °F 100% 30.05 in 10.0 mi Calm Calm - N/A   Clear
2:15 AM 56.1 °F - 55.8 °F 99% 30.05 in 10.0 mi Calm Calm - N/A   Clear
2:35 AM 56.1 °F - 56.1 °F 100% 30.05 in 10.0 mi Calm Calm - N/A   Clear
2:55 AM 56.5 °F - 56.1 °F 99% 30.05 in 10.0 mi SE 3.5 mph - N/A   Clear
3:15 AM 58.1 °F - 56.7 °F 95% 30.07 in 10.0 mi Calm Calm - N/A   Clear
3:35 AM 57.2 °F - 57.2 °F 100% 30.07 in 10.0 mi Calm Calm - N/A   Clear
3:55 AM 56.7 °F - 56.7 °F 100% 30.06 in 10.0 mi East 3.5 mph - N/A   Clear
4:15 AM 56.8 °F - 56.7 °F 99% 30.04 in 10.0 mi SE 4.6 mph - N/A   Clear
4:35 AM 61.7 °F - 59.2 °F 91% 30.04 in 10.0 mi Calm Calm - N/A   Clear
4:55 AM 59.4 °F - 57.7 °F 94% 30.05 in 10.0 mi Calm Calm - N/A   Clear
5:15 AM 57.7 °F - 57.6 °F 99% 30.07 in 10.0 mi Calm Calm - N/A   Clear
5:35 AM 58.5 °F - 58.1 °F 99% 30.07 in 10.0 mi Calm Calm - N/A   Clear
5:55 AM 59.0 °F - 58.8 °F 99% 30.07 in 10.0 mi Calm Calm - N/A   Scattered Clouds
6:15 AM 61.2 °F - 59.5 °F 94% 30.05 in 10.0 mi SE 4.6 mph - N/A   Scattered Clouds
6:35 AM 64.4 °F - 57.2 °F 77% 30.07 in 10.0 mi Calm Calm - N/A   Clear
6:55 AM 63.3 °F - 58.1 °F 83% 30.08 in 10.0 mi Calm Calm - N/A   Scattered Clouds
7:15 AM 63.0 °F - 61.0 °F 93% 30.12 in 10.0 mi Calm Calm - N/A   Mostly Cloudy
7:35 AM 63.3 °F - 59.9 °F 89% 30.13 in 10.0 mi Calm Calm - N/A   Scattered Clouds
7:55 AM 63.5 °F - 59.5 °F 87% 30.13 in 10.0 mi Calm Calm - N/A   Mostly Cloudy
8:15 AM 63.9 °F - 59.0 °F 84% 30.11 in 10.0 mi SE 4.6 mph - N/A   Scattered Clouds
8:35 AM 64.6 °F - 59.0 °F 82% 30.12 in 10.0 mi Calm Calm - N/A   Clear
8:55 AM 65.8 °F - 59.4 °F 80% 30.11 in 10.0 mi Calm Calm - N/A   Clear
9:15 AM 67.6 °F - 59.4 °F 75% 30.11 in 10.0 mi SE 3.5 mph - N/A   Clear
9:35 AM 68.9 °F - 59.2 °F 71% 30.11 in 10.0 mi ESE 3.5 mph - N/A   Clear
9:55 AM 70.2 °F - 59.2 °F 68% 30.11 in 10.0 mi SE 6.9 mph - N/A   Clear
10:15 AM 71.4 °F - 59.2 °F 65% 30.10 in 10.0 mi SE 6.9 mph - N/A   Clear
10:35 AM 72.1 °F - 58.6 °F 62% 30.10 in 10.0 mi SSE 5.8 mph - N/A   Clear
10:55 AM 73.6 °F - 58.3 °F 59% 30.11 in 10.0 mi South 8.1 mph - N/A   Clear
11:15 AM 75.0 °F - 56.5 °F 52% 30.12 in 10.0 mi South 11.5 mph - N/A   Clear
11:35 AM 75.7 °F - 55.9 °F 50% 30.11 in 10.0 mi SSW 12.7 mph 16.1 mph N/A   Clear
11:55 AM 76.1 °F - 54.5 °F 47% 30.11 in 10.0 mi South 8.1 mph 17.3 mph N/A   Clear
12:15 PM 78.3 °F - 54.5 °F 44% 30.11 in 10.0 mi South 10.4 mph 17.3 mph N/A   Clear
12:35 PM 78.4 °F - 53.2 °F 42% 30.11 in 10.0 mi SSW 10.4 mph 16.1 mph N/A   Clear
12:55 PM 80.2 °F 80.0 °F 53.4 °F 39% 30.11 in 10.0 mi South 11.5 mph - N/A   Clear
1:35 PM 80.6 °F 80.4 °F 54.0 °F 40% 30.11 in 10.0 mi South 5.8 mph - N/A   Clear
1:55 PM 81.7 °F 81.0 °F 54.0 °F 38% 30.12 in 10.0 mi SSW 10.4 mph - N/A   Clear
2:15 PM 81.5 °F 80.8 °F 53.8 °F 38% 30.12 in 10.0 mi South 8.1 mph - N/A   Clear
2:35 PM 82.2 °F 81.3 °F 53.4 °F 37% 30.11 in 10.0 mi SSE 9.2 mph 16.1 mph N/A   Clear
2:55 PM 83.3 °F 82.1 °F 53.6 °F 36% 30.11 in 10.0 mi West 6.9 mph - N/A   Clear
3:15 PM 82.6 °F 81.7 °F 54.7 °F 38% 30.11 in 10.0 mi South 6.9 mph - N/A   Clear
3:35 PM 83.7 °F 82.5 °F 54.9 °F 37% 30.11 in 10.0 mi SSE 5.8 mph - N/A   Clear
3:55 PM 82.9 °F 82.0 °F 54.9 °F 38% 30.10 in 10.0 mi SSE 6.9 mph - N/A   Clear
4:15 PM 84.0 °F 82.6 °F 54.0 °F 35% 30.10 in 10.0 mi South 8.1 mph - N/A   Clear
4:35 PM 84.2 °F 83.2 °F 55.8 °F 38% 30.09 in 10.0 mi SSW 8.1 mph - N/A   Clear
4:55 PM 82.4 °F 81.4 °F 53.4 °F 37% 30.09 in 10.0 mi South 5.8 mph - N/A   Clear
5:15 PM 82.4 °F 81.7 °F 55.2 °F 39% 30.09 in 10.0 mi South 5.8 mph - N/A   Clear
5:35 PM 81.9 °F 81.3 °F 55.2 °F 40% 30.09 in 10.0 mi South 5.8 mph - N/A   Clear
5:55 PM 82.0 °F 81.6 °F 56.1 °F 41% 30.09 in 10.0 mi South 8.1 mph - N/A   Clear
6:15 PM 81.5 °F 81.1 °F 55.9 °F 41% 30.08 in 10.0 mi SSE 6.9 mph - N/A   Clear
6:35 PM 81.3 °F 81.1 °F 55.9 °F 42% 30.09 in 10.0 mi SSE 6.9 mph - N/A   Clear
6:55 PM 81.0 °F 80.5 °F 53.8 °F 39% 30.09 in 10.0 mi South 6.9 mph - N/A   Clear
7:15 PM 79.9 °F - 55.6 °F 43% 30.09 in 10.0 mi South 4.6 mph - N/A   Scattered Clouds
7:35 PM 79.0 °F - 56.5 °F 46% 30.09 in 10.0 mi South 3.5 mph - N/A   Mostly Cloudy
7:55 PM 78.3 °F - 57.4 °F 49% 30.09 in 10.0 mi South 3.5 mph - N/A   Overcast
8:15 PM 77.5 °F - 58.1 °F 51% 30.09 in 10.0 mi South 3.5 mph - N/A   Overcast
8:35 PM 76.3 °F - 59.0 °F 55% 30.09 in 10.0 mi Calm Calm - N/A   Overcast
8:55 PM 74.7 °F - 59.5 °F 59% 30.09 in 10.0 mi Calm Calm - N/A   Mostly Cloudy
9:15 PM 72.7 °F - 60.1 °F 64% 30.10 in 10.0 mi Calm Calm - N/A   Overcast
9:35 PM 70.9 °F - 60.6 °F 70% 30.11 in 10.0 mi Calm Calm - N/A   Overcast
9:55 PM 70.7 °F - 61.2 °F 72% 30.11 in 10.0 mi ESE 3.5 mph - N/A   Overcast
10:15 PM 70.7 °F - 61.7 °F 73% 30.11 in 10.0 mi Calm Calm - N/A   Overcast
10:35 PM 69.4 °F - 61.9 °F 77% 30.11 in 10.0 mi ESE 4.6 mph - N/A   Mostly Cloudy
10:55 PM 68.7 °F - 61.7 °F 78% 30.11 in 10.0 mi Calm Calm - N/A   Scattered Clouds
11:15 PM 65.7 °F - 61.0 °F 85% 30.12 in 10.0 mi Calm Calm - N/A   Clear
11:35 PM 64.9 °F - 60.8 °F 86% 30.12 in 10.0 mi Calm Calm - N/A   Clear
11:55 PM 63.5 °F - 61.5 °F 93% 30.13 in 10.0 mi Calm Calm - N/A   Clear